BEL2UC GLRB-EBBR

Flight info

Callsign BEL2UC
Flight time N/A
Altitude 36000
Route ONSER1C TEKTO UB600 GIA/N0474F370 UR72 BUMBI UM372 BULIS/N0465F380 UM372 MAK UR722 SAK UG5 KORIS L27 VJF N10 HIJ Z230 TLD N858 ABRIX/N0446F340 DCT CNA DCT ADABI DCT BOKNO UN858 VANAD UN874 BAMES UT191 PODEM UN873 BAZOS DCT BELDI DCT VEKIN Z173 ARVOL ARVOL9A
Aircraft A339/H-SADE1E2E3GHIJ3J5M1P2RWXY/LB2D1

Departure

Time 2026-05-09 07:59
Airport Roberts International Airport (GLRB)

Arrival

Time N/A
Airport Brussels Airport (EBBR)
Time Latitude Longitude Altitude Speed Heading
2026-05-09 07:38 6.23846 -10.35492 51 ft 0 kts 306°
2026-05-09 07:49 6.23848 -10.35495 51 ft 2 kts 306°
2026-05-09 07:50 6.23866 -10.35531 52 ft 7 kts 292°
2026-05-09 07:50 6.23886 -10.35574 52 ft 7 kts 294°
2026-05-09 07:50 6.23909 -10.35621 52 ft 7 kts 299°
2026-05-09 07:50 6.23937 -10.35671 53 ft 8 kts 300°
2026-05-09 07:51 6.23969 -10.35723 54 ft 9 kts 301°
2026-05-09 07:51 6.24002 -10.35779 54 ft 9 kts 301°
2026-05-09 07:51 6.24010 -10.35829 54 ft 6 kts 249°
2026-05-09 07:51 6.23982 -10.35868 54 ft 7 kts 220°
2026-05-09 07:52 6.23936 -10.35894 54 ft 8 kts 208°
2026-05-09 07:52 6.23881 -10.35924 54 ft 9 kts 208°
2026-05-09 07:52 6.23817 -10.35959 54 ft 10 kts 210°
2026-05-09 07:52 6.23750 -10.36000 54 ft 11 kts 212°
2026-05-09 07:53 6.23678 -10.36045 54 ft 12 kts 212°
2026-05-09 07:53 6.23602 -10.36094 54 ft 13 kts 213°
2026-05-09 07:53 6.23521 -10.36146 54 ft 13 kts 213°
2026-05-09 07:53 6.23438 -10.36200 54 ft 14 kts 213°
2026-05-09 07:54 6.23351 -10.36254 54 ft 14 kts 210°
2026-05-09 07:54 6.23262 -10.36307 54 ft 15 kts 210°
2026-05-09 07:54 6.23169 -10.36361 54 ft 15 kts 211°
2026-05-09 07:54 6.23076 -10.36417 54 ft 15 kts 211°
2026-05-09 07:55 6.22987 -10.36470 56 ft 14 kts 211°
2026-05-09 07:55 6.22902 -10.36522 57 ft 14 kts 211°
2026-05-09 07:55 6.22817 -10.36574 57 ft 14 kts 212°
2026-05-09 07:55 6.22727 -10.36626 57 ft 14 kts 210°
2026-05-09 07:56 6.22636 -10.36680 57 ft 15 kts 211°
2026-05-09 07:56 6.22545 -10.36733 58 ft 14 kts 211°
2026-05-09 07:56 6.22457 -10.36786 58 ft 15 kts 211°
2026-05-09 07:56 6.22365 -10.36841 57 ft 15 kts 211°
2026-05-09 07:57 6.22277 -10.36895 58 ft 11 kts 212°
2026-05-09 07:57 6.22206 -10.36924 58 ft 10 kts 191°
2026-05-09 07:57 6.22129 -10.36930 58 ft 9 kts 188°
2026-05-09 07:57 6.22110 -10.36958 58 ft 5 kts 308°
2026-05-09 07:58 6.22153 -10.36962 59 ft 6 kts
2026-05-09 07:58 6.22201 -10.36945 59 ft 9 kts 27°
2026-05-09 07:58 6.22458 -10.36799 59 ft 78 kts 31°
2026-05-09 07:58 6.23135 -10.36393 54 ft 143 kts 32°
2026-05-09 07:59 6.24138 -10.35762 125 ft 189 kts 35°
2026-05-09 07:59 6.25318 -10.35067 657 ft 199 kts 24°
2026-05-09 07:59 6.26514 -10.34438 1543 ft 195 kts 30°
2026-05-09 07:59 6.27644 -10.33739 2364 ft 190 kts 30°
2026-05-09 08:00 6.28810 -10.33012 2702 ft 205 kts 31°
2026-05-09 08:00 6.30074 -10.32259 3011 ft 222 kts 23°
2026-05-09 08:00 6.31642 -10.32036 3320 ft 238 kts 347°
2026-05-09 08:00 6.33146 -10.32840 3689 ft 255 kts 313°
2026-05-09 08:01 6.34107 -10.34389 4131 ft 268 kts 298°
2026-05-09 08:01 6.35012 -10.36050 4765 ft 273 kts 300°
2026-05-09 08:01 6.35950 -10.37700 5411 ft 276 kts 301°
2026-05-09 08:01 6.36913 -10.39371 6018 ft 280 kts 301°
2026-05-09 08:02 6.37897 -10.41080 6609 ft 284 kts 301°
2026-05-09 08:02 6.38890 -10.42806 7153 ft 289 kts 302°
2026-05-09 08:02 6.39911 -10.44579 7691 ft 294 kts 302°
2026-05-09 08:02 6.40934 -10.46356 8230 ft 298 kts 302°
2026-05-09 08:03 6.41976 -10.48163 8722 ft 302 kts 302°
2026-05-09 08:03 6.43037 -10.50000 8957 ft 305 kts 302°
2026-05-09 08:03 6.44103 -10.51851 8976 ft 305 kts 302°
2026-05-09 08:03 6.45161 -10.53690 8978 ft 305 kts 302°
2026-05-09 08:04 6.46223 -10.55538 8981 ft 304 kts 302°
2026-05-09 08:04 6.47304 -10.57418 9170 ft 311 kts 302°
2026-05-09 08:04 6.48385 -10.59296 9775 ft 311 kts 302°
2026-05-09 08:04 6.49458 -10.61164 10324 ft 314 kts 302°
2026-05-09 08:05 6.50579 -10.63112 10591 ft 328 kts 302°
2026-05-09 08:05 6.51751 -10.65146 10839 ft 343 kts 302°
2026-05-09 08:05 6.52964 -10.67254 11074 ft 357 kts 302°
2026-05-09 08:05 6.54243 -10.69478 11335 ft 370 kts 302°
2026-05-09 08:06 6.55528 -10.71718 11756 ft 377 kts 302°
2026-05-09 08:06 6.56842 -10.74008 12294 ft 380 kts 302°
2026-05-09 08:06 6.58167 -10.76320 12800 ft 384 kts 302°
2026-05-09 08:06 6.59507 -10.78655 13278 ft 389 kts 302°
2026-05-09 08:07 6.60866 -10.81025 13774 ft 392 kts 302°
2026-05-09 08:07 6.62231 -10.83406 14302 ft 395 kts 302°
2026-05-09 08:07 6.63615 -10.85818 14840 ft 397 kts 303°
2026-05-09 08:07 6.65168 -10.88122 15350 ft 397 kts 311°
2026-05-09 08:08 6.67009 -10.90183 15859 ft 396 kts 319°
2026-05-09 08:08 6.69059 -10.92034 16350 ft 397 kts 322°
2026-05-09 08:08 6.71143 -10.93826 16825 ft 399 kts 323°
2026-05-09 08:08 6.73266 -10.95641 17307 ft 401 kts 323°
2026-05-09 08:09 6.75396 -10.97469 17804 ft 403 kts 323°
2026-05-09 08:09 6.77522 -10.99299 18279 ft 405 kts 322°
2026-05-09 08:09 6.79674 -11.01158 18739 ft 407 kts 322°
2026-05-09 08:09 6.81849 -11.03040 19199 ft 410 kts 322°
2026-05-09 08:10 6.83987 -11.04894 19636 ft 412 kts 322°
2026-05-09 08:10 6.86183 -11.06800 20080 ft 414 kts 322°
2026-05-09 08:10 6.88375 -11.08704 20500 ft 416 kts 322°
2026-05-09 08:10 6.90566 -11.10607 20905 ft 418 kts 322°
2026-05-09 08:11 6.92779 -11.12530 21294 ft 421 kts 322°
2026-05-09 08:11 6.94983 -11.14444 21681 ft 422 kts 322°
2026-05-09 08:11 6.97210 -11.16379 22066 ft 424 kts 322°
2026-05-09 08:11 6.99447 -11.18323 22455 ft 426 kts 322°
2026-05-09 08:12 7.03966 -11.22251 23200 ft 430 kts 322°
2026-05-09 08:12 7.06240 -11.24227 23555 ft 432 kts 322°
2026-05-09 08:12 7.08527 -11.26217 23904 ft 435 kts 322°
2026-05-09 08:13 7.10806 -11.28199 24249 ft 437 kts 321°
2026-05-09 08:13 7.13128 -11.30218 24608 ft 439 kts 321°
2026-05-09 08:13 7.15448 -11.32235 24954 ft 441 kts 321°
2026-05-09 08:13 7.17777 -11.34263 25287 ft 443 kts 321°
2026-05-09 08:14 7.20114 -11.36296 25617 ft 446 kts 321°
2026-05-09 08:14 7.22458 -11.38336 25945 ft 448 kts 321°
2026-05-09 08:14 7.24828 -11.40401 26268 ft 450 kts 321°
2026-05-09 08:14 7.27189 -11.42456 26584 ft 452 kts 321°
2026-05-09 08:15 7.29591 -11.44548 26897 ft 454 kts 321°
2026-05-09 08:15 7.31965 -11.46617 27193 ft 456 kts 321°
2026-05-09 08:15 7.34378 -11.48718 27496 ft 458 kts 321°
2026-05-09 08:15 7.36805 -11.50831 27801 ft 460 kts 321°
2026-05-09 08:16 7.39214 -11.52930 28103 ft 461 kts 321°
2026-05-09 08:16 7.41650 -11.55053 28393 ft 463 kts 321°
2026-05-09 08:16 7.44089 -11.57179 28684 ft 465 kts 320°
2026-05-09 08:16 7.46536 -11.59312 28988 ft 466 kts 320°
2026-05-09 08:17 7.48998 -11.61458 29282 ft 468 kts 320°
2026-05-09 08:17 7.51480 -11.63623 29566 ft 470 kts 320°
2026-05-09 08:17 7.53943 -11.65772 29829 ft 472 kts 320°
2026-05-09 08:17 7.56431 -11.67943 30081 ft 474 kts 320°
2026-05-09 08:18 7.58959 -11.70147 30339 ft 476 kts 320°
2026-05-09 08:18 7.61442 -11.72315 30593 ft 478 kts 320°
2026-05-09 08:18 7.63987 -11.74536 30858 ft 480 kts 320°
2026-05-09 08:18 7.66495 -11.76726 31107 ft 481 kts 320°
2026-05-09 08:19 7.69043 -11.78950 31426 ft 482 kts 320°
2026-05-09 08:19 7.71578 -11.81165 31790 ft 481 kts 320°
2026-05-09 08:19 7.74086 -11.83354 32163 ft 479 kts 320°
2026-05-09 08:19 7.76599 -11.85552 32513 ft 479 kts 320°
2026-05-09 08:20 7.79136 -11.87768 32866 ft 478 kts 320°
2026-05-09 08:20 7.81623 -11.89978 33237 ft 478 kts 318°
2026-05-09 08:20 7.84017 -11.92287 33609 ft 477 kts 317°
2026-05-09 08:20 7.86394 -11.94638 33978 ft 476 kts 316°
2026-05-09 08:21 7.88739 -11.96966 34316 ft 476 kts 316°
2026-05-09 08:21 7.91103 -11.99315 34598 ft 476 kts 316°
2026-05-09 08:21 7.93467 -12.01663 34828 ft 478 kts 316°
2026-05-09 08:21 7.95852 -12.04030 35058 ft 479 kts 316°
2026-05-09 08:22 7.98232 -12.06392 35281 ft 480 kts 316°
2026-05-09 08:22 8.00601 -12.08743 35508 ft 481 kts 316°
2026-05-09 08:22 8.02982 -12.11104 35728 ft 482 kts 316°
2026-05-09 08:22 8.05365 -12.13470 35924 ft 483 kts 316°
2026-05-09 08:23 8.10190 -12.18260 35988 ft 486 kts 316°
2026-05-09 08:23 8.15027 -12.23064 35990 ft 486 kts 316°
2026-05-09 08:24 8.19842 -12.27848 35991 ft 485 kts 316°
2026-05-09 08:24 8.24634 -12.32613 35992 ft 484 kts 316°
2026-05-09 08:25 8.29419 -12.37371 35991 ft 483 kts 316°
2026-05-09 08:25 8.34232 -12.42159 35993 ft 483 kts 316°
2026-05-09 08:26 8.39049 -12.46838 35990 ft 483 kts 317°
2026-05-09 08:26 8.43963 -12.51524 35990 ft 482 kts 317°
2026-05-09 08:27 8.48799 -12.56151 35990 ft 481 kts 317°
2026-05-09 08:27 8.53662 -12.60813 35989 ft 482 kts 317°
2026-05-09 08:28 8.58537 -12.65490 35988 ft 481 kts 317°
2026-05-09 08:28 8.63396 -12.70158 35989 ft 481 kts 317°
2026-05-09 08:29 8.68241 -12.74812 35989 ft 480 kts 317°
2026-05-09 08:29 8.73068 -12.79451 35990 ft 479 kts 317°
2026-05-09 08:30 8.77909 -12.84107 35988 ft 479 kts 317°
2026-05-09 08:30 8.82718 -12.88731 35987 ft 478 kts 317°
2026-05-09 08:31 8.87508 -12.93429 35983 ft 479 kts 316°
2026-05-09 08:31 8.92253 -12.98167 35976 ft 479 kts 316°
2026-05-09 08:32 8.96975 -13.02876 35982 ft 479 kts 316°
2026-05-09 08:33 9.04077 -13.09955 35986 ft 478 kts 316°
2026-05-09 08:33 9.08814 -13.14675 35990 ft 477 kts 316°
2026-05-09 08:34 9.13572 -13.19418 35989 ft 478 kts 316°
2026-05-09 08:34 9.18308 -13.24114 35993 ft 479 kts 316°
2026-05-09 08:35 9.23104 -13.28811 35996 ft 479 kts 316°
2026-05-09 08:35 9.27902 -13.33520 35991 ft 480 kts 316°
2026-05-09 08:36 9.32663 -13.38198 35994 ft 480 kts 316°
2026-05-09 08:36 9.37483 -13.42936 35994 ft 481 kts 316°
2026-05-09 08:37 9.42269 -13.47642 36003 ft 481 kts 316°
2026-05-09 08:37 9.47050 -13.52350 36010 ft 481 kts 316°
2026-05-09 08:38 9.52292 -13.56585 36004 ft 480 kts 331°
2026-05-09 08:38 9.58531 -13.58952 36003 ft 480 kts 349°
2026-05-09 08:39 9.65171 -13.59235 35997 ft 479 kts
2026-05-09 08:39 9.71644 -13.57661 36000 ft 479 kts 17°
2026-05-09 08:40 9.78050 -13.55709 35997 ft 478 kts 17°
2026-05-09 08:40 9.84452 -13.53776 36014 ft 478 kts 17°
2026-05-09 08:41 9.90812 -13.51877 36028 ft 477 kts 17°
2026-05-09 08:41 9.97186 -13.49974 36048 ft 477 kts 17°
2026-05-09 08:42 10.03590 -13.48061 36054 ft 478 kts 16°
2026-05-09 08:42 10.09973 -13.46158 36053 ft 478 kts 16°
2026-05-09 08:43 10.16381 -13.44244 36049 ft 477 kts 16°
2026-05-09 08:43 10.22751 -13.42356 36046 ft 476 kts 15°
2026-05-09 08:44 10.29264 -13.40924 36046 ft 476 kts
2026-05-09 08:44 10.35836 -13.39786 36047 ft 477 kts
2026-05-09 08:45 10.42372 -13.38664 36047 ft 478 kts
2026-05-09 08:45 10.48983 -13.37521 36048 ft 479 kts
2026-05-09 08:46 10.55532 -13.36385 36055 ft 479 kts
2026-05-09 08:46 10.62135 -13.35239 36059 ft 478 kts
2026-05-09 08:47 10.68719 -13.34094 36064 ft 479 kts
2026-05-09 08:47 10.75282 -13.32953 36069 ft 479 kts
2026-05-09 08:48 10.81892 -13.31801 36071 ft 480 kts
2026-05-09 08:48 10.88496 -13.30650 36073 ft 480 kts
2026-05-09 08:49 10.95075 -13.29505 36078 ft 480 kts
2026-05-09 08:49 11.01664 -13.28367 36079 ft 480 kts
2026-05-09 08:50 11.08290 -13.27220 36077 ft 480 kts
2026-05-09 08:50 11.14886 -13.26073 36070 ft 480 kts
2026-05-09 08:51 11.21491 -13.24924 36063 ft 480 kts
2026-05-09 08:51 11.28078 -13.23776 36056 ft 481 kts
2026-05-09 08:52 11.34700 -13.22622 36050 ft 481 kts
2026-05-09 08:52 11.41324 -13.21468 36046 ft 481 kts
2026-05-09 08:53 11.47941 -13.20314 36040 ft 481 kts
2026-05-09 08:53 11.54550 -13.19160 36040 ft 481 kts
2026-05-09 08:54 11.61144 -13.18009 36036 ft 481 kts
2026-05-09 08:54 11.67774 -13.16848 36028 ft 481 kts
2026-05-09 08:55 11.74376 -13.15693 36020 ft 481 kts
2026-05-09 08:55 11.80952 -13.14313 36015 ft 482 kts 13°
2026-05-09 08:56 11.87431 -13.12588 36013 ft 482 kts 13°
2026-05-09 08:56 11.93951 -13.10826 36011 ft 482 kts 13°
2026-05-09 08:57 12.00452 -13.09073 36008 ft 481 kts 13°
2026-05-09 08:57 12.06929 -13.07330 36005 ft 482 kts 13°
2026-05-09 08:58 12.13463 -13.05570 36001 ft 482 kts 13°
2026-05-09 08:58 12.19948 -13.03824 36002 ft 481 kts 13°
2026-05-09 08:59 12.26434 -13.02074 36002 ft 481 kts 13°
2026-05-09 08:59 12.32925 -13.00320 35996 ft 482 kts 13°
2026-05-09 09:00 12.39442 -12.98561 35995 ft 482 kts 13°
2026-05-09 09:00 12.45976 -12.96841 35996 ft 483 kts 12°
2026-05-09 09:01 12.52537 -12.95277 35990 ft 483 kts 11°
2026-05-09 09:01 12.59084 -12.93799 35988 ft 483 kts 11°
2026-05-09 09:02 12.65659 -12.92300 35986 ft 483 kts 11°
2026-05-09 09:02 12.72229 -12.90788 35988 ft 483 kts 11°
2026-05-09 09:03 12.78805 -12.89270 35993 ft 484 kts 11°
2026-05-09 09:03 12.85448 -12.87735 35996 ft 485 kts 10°
2026-05-09 09:04 12.92019 -12.86217 35997 ft 485 kts 11°
2026-05-09 09:04 12.98640 -12.84686 35997 ft 485 kts 10°
2026-05-09 09:05 13.05229 -12.83161 35996 ft 485 kts 10°
2026-05-09 09:05 13.11859 -12.81626 35995 ft 485 kts 10°
2026-05-09 09:06 13.18462 -12.80095 35995 ft 486 kts 10°
2026-05-09 09:06 13.25095 -12.78558 35989 ft 485 kts 10°
2026-05-09 09:07 13.31663 -12.77033 35976 ft 485 kts 10°
2026-05-09 09:07 13.38264 -12.75501 35970 ft 485 kts 10°
2026-05-09 09:08 13.44884 -12.73961 35967 ft 485 kts 10°
2026-05-09 09:08 13.51458 -12.72432 35960 ft 485 kts 10°
2026-05-09 09:09 13.58062 -12.70899 35959 ft 486 kts 10°
2026-05-09 09:09 13.64683 -12.69365 35959 ft 487 kts 10°
2026-05-09 09:10 13.71300 -12.67829 35959 ft 487 kts 10°
2026-05-09 09:10 13.77956 -12.66281 35960 ft 487 kts 10°
2026-05-09 09:11 13.84568 -12.64740 35955 ft 487 kts 10°
2026-05-09 09:11 13.91200 -12.63196 35954 ft 487 kts 10°
2026-05-09 09:12 13.97788 -12.61658 35956 ft 487 kts 10°
2026-05-09 09:12 14.04445 -12.60105 35951 ft 488 kts 10°
2026-05-09 09:13 14.11080 -12.58554 35950 ft 487 kts 10°
2026-05-09 09:13 14.17714 -12.57005 35950 ft 488 kts 10°
2026-05-09 09:14 14.24374 -12.55447 35953 ft 489 kts
2026-05-09 09:14 14.30997 -12.53898 35952 ft 488 kts
2026-05-09 09:15 14.37640 -12.52342 35952 ft 488 kts
2026-05-09 09:15 14.44274 -12.50789 35955 ft 488 kts
2026-05-09 09:16 14.50949 -12.49222 35958 ft 489 kts
2026-05-09 09:16 14.60895 -12.46888 35951 ft 490 kts
2026-05-09 09:17 14.67598 -12.45311 35948 ft 490 kts
2026-05-09 09:17 14.74230 -12.43751 35943 ft 490 kts
2026-05-09 09:18 14.80906 -12.42187 35940 ft 489 kts
2026-05-09 09:18 14.87571 -12.40625 35935 ft 490 kts
2026-05-09 09:19 14.94222 -12.39061 35932 ft 489 kts
2026-05-09 09:19 15.00874 -12.37496 35933 ft 489 kts
2026-05-09 09:20 15.07503 -12.35934 35934 ft 491 kts
2026-05-09 09:20 15.14189 -12.34357 35929 ft 491 kts
2026-05-09 09:21 15.20881 -12.32776 35927 ft 492 kts
2026-05-09 09:21 15.27553 -12.31201 35931 ft 491 kts
2026-05-09 09:22 15.34218 -12.29624 35929 ft 491 kts
2026-05-09 09:22 15.40886 -12.28047 35929 ft 491 kts
2026-05-09 09:23 15.47565 -12.26466 35931 ft 491 kts
2026-05-09 09:23 15.54234 -12.24883 35929 ft 492 kts
2026-05-09 09:24 15.60952 -12.23292 35929 ft 494 kts
2026-05-09 09:24 15.67622 -12.21718 35926 ft 494 kts
2026-05-09 09:25 15.74382 -12.20117 35930 ft 494 kts
2026-05-09 09:25 15.81086 -12.18527 35935 ft 495 kts
2026-05-09 09:26 15.87842 -12.16924 35939 ft 495 kts
2026-05-09 09:26 15.94562 -12.15325 35937 ft 494 kts
2026-05-09 09:27 16.01273 -12.13729 35938 ft 494 kts
2026-05-09 09:27 16.07973 -12.12132 35941 ft 494 kts
2026-05-09 09:28 16.14674 -12.10537 35941 ft 495 kts
2026-05-09 09:28 16.21441 -12.08924 35944 ft 496 kts
2026-05-09 09:29 16.28177 -12.07316 35946 ft 496 kts
2026-05-09 09:29 16.34923 -12.05704 35952 ft 496 kts
2026-05-09 09:30 16.41668 -12.04093 35960 ft 496 kts
2026-05-09 09:30 16.48418 -12.02478 35964 ft 496 kts
2026-05-09 09:31 16.55127 -12.00872 35976 ft 496 kts
2026-05-09 09:32 16.65290 -11.98435 35991 ft 498 kts
2026-05-09 09:32 16.72040 -11.96815 36000 ft 497 kts
2026-05-09 09:33 16.78764 -11.95200 36000 ft 497 kts
2026-05-09 09:33 16.85546 -11.93575 35996 ft 497 kts
2026-05-09 09:34 16.92283 -11.91966 35991 ft 497 kts
2026-05-09 09:34 16.99032 -11.90346 35981 ft 498 kts
2026-05-09 09:36 17.26100 -11.83830 36003 ft 497 kts
2026-05-09 09:37 17.32826 -11.82209 36008 ft 496 kts
2026-05-09 09:37 17.39541 -11.80587 36017 ft 495 kts
2026-05-09 09:38 17.46304 -11.78952 36026 ft 496 kts
2026-05-09 09:38 17.53016 -11.77328 36035 ft 496 kts
2026-05-09 09:39 17.59768 -11.75696 36038 ft 496 kts
2026-05-09 09:39 17.66492 -11.74067 36034 ft 495 kts
2026-05-09 09:40 17.73191 -11.72445 36031 ft 495 kts
2026-05-09 09:40 17.79941 -11.70805 36031 ft 494 kts
2026-05-09 09:41 17.86611 -11.69186 36037 ft 494 kts
2026-05-09 09:41 17.93356 -11.67545 36036 ft 494 kts
2026-05-09 09:42 18.00052 -11.65914 36035 ft 493 kts
2026-05-09 09:42 18.06727 -11.64290 36039 ft 493 kts
2026-05-09 09:43 18.13454 -11.62660 36042 ft 492 kts
2026-05-09 09:43 18.20124 -11.61041 36040 ft 492 kts
2026-05-09 09:44 18.26777 -11.59419 36040 ft 490 kts
2026-05-09 09:44 18.33446 -11.57793 36039 ft 489 kts
2026-05-09 09:45 18.40075 -11.56175 36035 ft 489 kts
2026-05-09 09:45 18.46693 -11.54557 36035 ft 488 kts
2026-05-09 09:46 18.53346 -11.52929 36036 ft 487 kts
2026-05-09 09:46 18.59944 -11.51315 36039 ft 486 kts
2026-05-09 09:47 18.66520 -11.49703 36043 ft 486 kts
2026-05-09 09:47 18.73116 -11.48088 36048 ft 485 kts
2026-05-09 09:48 18.79691 -11.46475 36044 ft 484 kts
2026-05-09 09:48 18.86248 -11.44864 36041 ft 484 kts 10°
2026-05-09 09:49 18.92803 -11.43253 36038 ft 482 kts 10°
2026-05-09 09:49 18.99350 -11.41642 36038 ft 481 kts 10°
2026-05-09 09:50 19.05877 -11.40034 36035 ft 481 kts 10°
2026-05-09 09:50 19.12423 -11.38419 36035 ft 481 kts 10°
2026-05-09 09:51 19.18956 -11.36808 36035 ft 481 kts 10°
2026-05-09 09:51 19.25490 -11.35196 36034 ft 481 kts 10°
2026-05-09 09:52 19.32021 -11.33583 36034 ft 481 kts 10°
2026-05-09 09:52 19.38537 -11.31972 36036 ft 482 kts 10°
2026-05-09 09:53 19.45092 -11.30351 36037 ft 482 kts 10°
2026-05-09 09:53 19.51629 -11.28731 36039 ft 481 kts 10°
2026-05-09 09:54 19.58161 -11.27111 36039 ft 481 kts 10°
2026-05-09 09:54 19.64686 -11.25492 36036 ft 481 kts 10°
2026-05-09 09:55 19.71213 -11.23873 36031 ft 481 kts 10°
2026-05-09 09:55 19.77760 -11.22244 36026 ft 482 kts 10°
2026-05-09 09:56 19.84279 -11.20621 36021 ft 482 kts 10°
2026-05-09 09:56 19.90818 -11.18991 36018 ft 481 kts 10°
2026-05-09 09:57 19.97357 -11.17360 36017 ft 481 kts 10°
2026-05-09 09:57 20.03863 -11.15744 36016 ft 481 kts 10°
2026-05-09 09:58 20.10388 -11.14123 36018 ft 481 kts 10°
2026-05-09 09:58 20.10534 -11.14087 36018 ft 481 kts 10°